Sauk Centre, MN

5:10 AM CDT on May 21, 2018 (GMT -0500)
Sauk Centre

Weather History for KD39 - April, 2014

Change the Weather History Date:

Wednesday, April 2, 2014

  Actual Average (KGHW) Record (KGHW)
Temperature  
Mean Temperature 24 °F -  
Max Temperature 34 °F 47 °F 75 °F (1981)
Min Temperature 14 °F 26 °F 5 °F (1954)
Degree Days  
Heating Degree Days 41    
Moisture  
Dew Point 17 °F    
Average Humidity 70    
Maximum Humidity 86    
Minimum Humidity 58    
Precipitation  
Precipitation 0.00 in - - ()
Sea Level Pressure  
Sea Level Pressure 30.13 in    
Wind  
Wind Speed 6 mph (NE)    
Max Wind Speed 13 mph    
Max Gust Speed 16 mph    
Visibility 10 miles    
Events      
Averages and records for this station are not official NWS values.
T = Trace of Precipitation, MM = Missing Value Source: NWS Daily Summary

Daily Weather History Graph

Daily Weather History Graph

Search for Another Location

Airport or City:

Astronomy

Apr. 02, 2014 Rise Set
Actual Time 6:57 AM CDT 7:49 PM CDT
Civil Twilight 6:27 AM CDT 8:19 PM CDT
Nautical Twilight 5:51 AM CDT 8:55 PM CDT
Astronomical Twilight 5:14 AM CDT 9:33 PM CDT
Moon 8:34 AM CDT (4/2) 11:23 PM CDT (4/2)
Length of Visible Light 13h 51m
Length of Day
12h 51m
Waxing Crescent, 10% of the Moon is Illuminated
Apr 2
Waxing Crescent
Apr 7
First Quarter
Apr 15
Full
Apr 22
Last Quarter
Apr 29
New

Hourly Weather History & Observations

Time (CDT) Temp. Windchill Dew Point Humidity Pressure Visibility Wind Dir Wind Speed Gust Speed Precip Events Conditions
12:05 AM 19.2 °F 11.3 °F 13.1 °F 77% 30.13 in 10.0 mi NW 5.8 mph - N/A   Clear
12:25 AM 19.4 °F 10.4 °F 12.2 °F 74% 30.13 in 10.0 mi NNW 6.9 mph - N/A   Clear
12:45 AM 17.6 °F 9.3 °F 14.0 °F 86% 30.13 in 10.0 mi NNW 5.8 mph - N/A   Clear
12:57 AM 18.3 °F 11.5 °F 13.1 °F 80% 30.13 in 10.0 mi NNW 4.6 mph - N/A   Clear
1:12 AM 18.1 °F 12.9 °F 13.1 °F 81% 30.13 in 10.0 mi North 3.5 mph - N/A   Clear
1:32 AM 18.0 °F 11.1 °F 12.9 °F 81% 30.14 in 10.0 mi NNW 4.6 mph - N/A   Clear
1:52 AM 17.6 °F 12.3 °F 12.9 °F 82% 30.14 in 10.0 mi NNW 3.5 mph - N/A   Clear
2:12 AM 17.2 °F - 12.7 °F 83% 30.15 in 10.0 mi Calm Calm - N/A   Clear
2:33 AM 17.1 °F 11.7 °F 12.4 °F 82% 30.15 in 10.0 mi NNW 3.5 mph - N/A   Clear
2:52 AM 16.7 °F 8.3 °F 12.7 °F 84% 30.14 in 10.0 mi NNW 5.8 mph - N/A   Clear
3:12 AM 16.5 °F 9.4 °F 12.6 °F 84% 30.14 in 10.0 mi NNW 4.6 mph - N/A   Clear
3:33 AM 16.3 °F 9.2 °F 12.4 °F 84% 30.15 in 10.0 mi NNW 4.6 mph - N/A   Clear
3:52 AM 16.2 °F 10.6 °F 12.2 °F 84% 30.15 in 10.0 mi NNW 3.5 mph - N/A   Clear
4:12 AM 16.2 °F 10.6 °F 12.2 °F 84% 30.16 in 10.0 mi North 3.5 mph - N/A   Clear
4:33 AM 15.8 °F 10.2 °F 12.4 °F 86% 30.15 in 10.0 mi North 3.5 mph - N/A   Clear
4:52 AM 15.8 °F 10.2 °F 12.0 °F 85% 30.15 in 10.0 mi North 3.5 mph - N/A   Clear
5:12 AM 15.6 °F - 11.7 °F 84% 30.16 in 10.0 mi Calm Calm - N/A   Clear
5:33 AM 15.1 °F 9.4 °F 11.7 °F 86% 30.16 in 10.0 mi North 3.5 mph - N/A   Clear
5:52 AM 14.9 °F - 11.3 °F 86% 30.16 in 10.0 mi Calm Calm - N/A   Clear
6:12 AM 14.9 °F 9.2 °F 11.3 °F 86% 30.16 in 10.0 mi North 3.5 mph - N/A   Clear
7:52 AM 15.4 °F 8.1 °F 10.4 °F 80% 30.17 in 10.0 mi NNE 4.6 mph - N/A   Clear
8:12 AM 16.3 °F 5.7 °F 10.8 °F 79% 30.16 in 10.0 mi NNE 8.1 mph - N/A   Clear
8:33 AM 17.6 °F 9.3 °F 11.3 °F 76% 30.16 in 10.0 mi NE 5.8 mph - N/A   Clear
8:52 AM 18.7 °F 11.9 °F 11.7 °F 74% 30.16 in 10.0 mi ENE 4.6 mph - N/A   Clear
9:12 AM 20.3 °F 11.5 °F 12.2 °F 71% 30.17 in 10.0 mi ENE 6.9 mph - N/A   Clear
9:33 AM 21.2 °F 13.6 °F 12.9 °F 70% 30.17 in 10.0 mi ENE 5.8 mph - N/A   Clear
9:52 AM 22.8 °F 14.5 °F 14.5 °F 71% 30.19 in 10.0 mi East 6.9 mph - N/A   Clear
10:12 AM 23.9 °F 15.8 °F 14.5 °F 67% 30.18 in 10.0 mi ESE 6.9 mph - N/A   Clear
10:33 AM 25.0 °F 17.1 °F 16.0 °F 69% 30.18 in 10.0 mi ESE 6.9 mph - N/A   Clear
10:52 AM 25.9 °F 17.4 °F 16.9 °F 69% 30.18 in 10.0 mi East 8.1 mph - N/A   Clear
11:12 AM 26.8 °F 18.5 °F 17.8 °F 69% 30.18 in 10.0 mi East 8.1 mph - N/A   Clear
11:33 AM 27.5 °F 21.1 °F 18.3 °F 68% 30.18 in 10.0 mi East 5.8 mph - N/A   Clear
11:52 AM 29.1 °F 24.1 °F 19.0 °F 66% 30.17 in 10.0 mi ESE 4.6 mph - N/A   Clear
12:12 PM 28.9 °F 21.9 °F 19.0 °F 67% 30.17 in 10.0 mi East 6.9 mph - N/A   Clear
12:52 PM 30.7 °F 22.6 °F 19.9 °F 64% 30.16 in 10.0 mi East 9.2 mph - N/A   Clear
1:12 PM 31.6 °F 23.7 °F 20.3 °F 63% 30.16 in 10.0 mi East 9.2 mph - N/A   Clear
1:33 PM 32.4 °F 23.5 °F 21.4 °F 64% 30.16 in 10.0 mi ENE 11.5 mph - N/A   Clear
1:52 PM 33.3 °F 25.1 °F 22.1 °F 64% 30.16 in 10.0 mi East 10.4 mph - N/A   Clear
2:32 PM 33.3 °F 24.1 °F 21.7 °F 63% 30.14 in 10.0 mi East 12.7 mph 16.1 mph N/A   Clear
2:52 PM 33.6 °F 24.6 °F 22.1 °F 63% 30.13 in 10.0 mi ENE 12.7 mph - N/A   Clear
3:12 PM 34.0 °F 25.5 °F 21.4 °F 60% 30.11 in 10.0 mi ENE 11.5 mph - N/A   Clear
3:32 PM 34.5 °F 26.7 °F 21.9 °F 60% 30.13 in 10.0 mi East 10.4 mph - N/A   Clear
3:52 PM 33.8 °F 24.8 °F 21.9 °F 62% 30.11 in 10.0 mi ENE 12.7 mph - N/A   Clear
4:12 PM 33.6 °F 24.6 °F 21.4 °F 61% 30.11 in 10.0 mi ENE 12.7 mph - N/A   Clear
4:32 PM 33.1 °F 24.4 °F 21.0 °F 61% 30.11 in 10.0 mi East 11.5 mph - N/A   Clear
5:12 PM 33.1 °F 24.9 °F 21.0 °F 61% 30.11 in 10.0 mi East 10.4 mph - N/A   Clear
5:32 PM 33.1 °F 25.5 °F 21.0 °F 61% 30.11 in 10.0 mi East 9.2 mph - N/A   Scattered Clouds
5:52 PM 33.1 °F 26.1 °F 21.4 °F 62% 30.11 in 10.0 mi ENE 8.1 mph - N/A   Overcast
6:12 PM 32.9 °F 25.9 °F 21.4 °F 63% 30.10 in 10.0 mi ENE 8.1 mph - N/A   Overcast
6:32 PM 32.9 °F 25.9 °F 21.4 °F 63% 30.09 in 10.0 mi ENE 8.1 mph - N/A   Overcast
6:52 PM 32.9 °F 25.9 °F 20.8 °F 61% 30.09 in 10.0 mi ENE 8.1 mph - N/A   Overcast
7:12 PM 32.7 °F 25.7 °F 21.4 °F 63% 30.08 in 10.0 mi ENE 8.1 mph - N/A   Overcast
7:32 PM 32.5 °F 24.8 °F 22.1 °F 65% 30.07 in 10.0 mi ENE 9.2 mph - N/A   Overcast
7:52 PM 32.5 °F 25.5 °F 21.6 °F 64% 30.07 in 10.0 mi ENE 8.1 mph - N/A   Overcast
8:12 PM 32.5 °F 25.5 °F 21.4 °F 64% 30.07 in 10.0 mi NE 8.1 mph - N/A   Overcast
8:32 PM 32.9 °F 26.7 °F 21.0 °F 62% 30.09 in 10.0 mi ENE 6.9 mph - N/A   Overcast
8:52 PM 32.9 °F 25.9 °F 20.3 °F 60% 30.09 in 10.0 mi ENE 8.1 mph - N/A   Overcast
9:12 PM 32.9 °F 25.9 °F 20.8 °F 61% 30.09 in 10.0 mi ENE 8.1 mph - N/A   Overcast
9:32 PM 33.1 °F 26.9 °F 20.3 °F 59% 30.10 in 10.0 mi ENE 6.9 mph - N/A   Overcast
9:52 PM 33.1 °F 27.7 °F 21.2 °F 62% 30.11 in 10.0 mi East 5.8 mph - N/A   Overcast
10:12 PM 32.9 °F 25.9 °F 20.7 °F 61% 30.10 in 10.0 mi NE 8.1 mph - N/A   Overcast
10:32 PM 33.3 °F 25.1 °F 20.5 °F 59% 30.09 in 10.0 mi NE 10.4 mph - N/A   Overcast
10:52 PM 33.3 °F 25.7 °F 20.3 °F 59% 30.10 in 10.0 mi ENE 9.2 mph - N/A   Overcast
11:12 PM 33.1 °F 25.5 °F 20.8 °F 61% 30.08 in 10.0 mi NE 9.2 mph - N/A   Overcast
11:31 PM 33.3 °F 27.1 °F 20.3 °F 59% 30.08 in 10.0 mi NE 6.9 mph - N/A   Overcast
11:52 PM 33.4 °F 25.9 °F 20.1 °F 58% 30.07 in 10.0 mi NE 9.2 mph - N/A   Overcast